カタログに戻る

PRAETORIAN SDA_601

運用中軍事PO
NORAD 65585·PAYLOAD·🇺🇸 United States

打ち上げ Sep 10, 2025 から Vandenberg Space Force Base

Loading…

次のパス (今後24時間)

TLE

最新Source: Space-Track

元期: Sep 14, 2026, 00:47 UTC

1 65585U 25203W   26257.03330832  .00000396  00000-0  35094-3 0  9997
2 65585  81.3008 288.8938 0004941 335.5601  24.5320 13.83175350 50960

AllMySatでPRAETORIAN SDA_601をリアルタイム追跡

Download on the App Store